Content
SEND FEEDBACK

Daily
Averages
Monthly
Summary
United States of America

WEST PARIS, MAINE


Home > North America > United States > Maine
Elevation: 540 feet     Latitude: 44 20N     Longitude: 070 35W

WEATHER
 
SELECT A DAY
Number of Records: 451,562;   Date Range: 1/1/95 - 8/30/14
 
SHARE

PRINT THIS DATA

[ ← Previous Day ]
WEATHER ALMANAC - JANUARY 31, 2013
[ Next Day → ]
[ °C ]   °F
Weather ElementAverageHighLow
Temperature44.5 °F53.6 °F (3:55 am)30.2 °F (10:15 pm)
Dewpoint33.6 °F51.8 °F (2:55 am)8.6 °F (9:15 pm)
Humidity69.5 %100 % (1:15 am)38 % (6:35 pm)
Barometer29.13 in29.41 in (11:35 pm)28.83 in (9:55 am)
Wind Speed17.7 mph28.8 mph (7:35 am)
Wind Gust42.6 mph (10:55 am)
Weather ElementAverage
Visibility7.9 mi
Wind DirectionSSW (213.4 °)

Weather ElementTotal
Precipitation---
Heating Degree Days23.1 (Base 65)
Averaged from 62 records on January 31, 2013
WEATHER CONDITIONS BREAKOUT
WIND DIRECTION BREAKOUT
WEATHER BY HOUR - JANUARY 31, 2013
[ °C ]   °F
Local TimeTemperatureDewpointHumidityBarometerVisibilityWind DirectionWind SpeedGust SpeedPrecipitationEventsConditions
12:35 AM48.2 °F46.4 °F93 %29.39 in0.2 miSouth (170°)6.9 mphOvercast
1:15 AM48.2 °F48.2 °F100 %29.36 in0.2 miSouth (170°)10.4 mphOvercast
1:35 AM50.0 °F48.2 °F94 %29.34 in0.5 miSouth (170°)10.4 mphOvercast
1:55 AM50.0 °F48.2 °F94 %29.32 in0.8 miSSE (160°)11.5 mph16.1 mphOvercast
2:15 AM51.8 °F50.0 °F94 %29.29 in0.5 miSSE (160°)11.5 mphOvercast
2:35 AM51.8 °F50.0 °F94 %29.27 in0.5 miSouth (170°)15.0 mph23.0 mphOvercast
2:55 AM51.8 °F51.8 °F100 %29.24 in5.0 miSouth (180°)16.1 mph28.8 mphOvercast
3:15 AM51.8 °F51.8 °F100 %29.22 in5.0 miSouth (180°)20.7 mph28.8 mphOvercast
3:35 AM51.8 °F51.8 °F100 %29.19 in9.0 miSouth (180°)18.4 mph27.6 mphOvercast
3:55 AM53.6 °F51.8 °F94 %29.17 in5.0 miSouth (180°)21.9 mph31.1 mphOvercast
4:15 AM53.6 °F51.8 °F94 %29.14 in5.0 miSouth (170°)18.4 mph29.9 mphOvercast
4:35 AM53.6 °F51.8 °F94 %29.12 in4.0 miSouth (180°)20.7 mph32.2 mphOvercast
4:55 AM51.8 °F51.8 °F100 %29.09 in5.0 miSouth (170°)26.5 mph33.4 mphOvercast
5:15 AM51.8 °F51.8 °F100 %29.08 in4.0 miSouth (170°)17.3 mph29.9 mphOvercast
5:35 AM51.8 °F50.0 °F94 %29.06 in5.0 miSouth (170°)16.1 mph28.8 mphOvercast
5:55 AM51.8 °F50.0 °F94 %29.04 in7.0 miSouth (170°)16.1 mph25.3 mphOvercast
6:15 AM51.8 °F50.0 °F94 %29.02 in7.0 miSouth (170°)15.0 mph28.8 mphOvercast
6:35 AM51.8 °F51.8 °F100 %28.97 in5.0 miSouth (170°)20.7 mph35.7 mphOvercast
7:15 AM53.6 °F51.8 °F94 %28.92 in10.0 miSouth (180°)27.6 mph36.8 mphOvercast
7:35 AM53.6 °F51.8 °F94 %28.91 in4.0 miSouth (190°)28.8 mph40.3 mphOvercast
7:56 AM53.6 °F51.8 °F94 %28.95 in2.5 miWSW (240°)19.6 mph36.8 mphOvercast
8:15 AM53.6 °F51.8 °F94 %28.93 in10.0 miSouth (190°)15.0 mph28.8 mphOvercast
8:35 AM53.6 °F51.8 °F94 %28.91 in10.0 miSouth (170°)12.7 mph19.6 mphOvercast
8:55 AM53.6 °F51.8 °F94 %28.88 in10.0 miSouth (180°)12.7 mph20.7 mphOvercast
9:15 AM51.8 °F50.0 °F94 %28.87 in7.0 miSouth (170°)16.1 mphOvercast
9:35 AM51.8 °F50.0 °F94 %28.85 in8.0 miSouth (180°)15.0 mph23.0 mphOvercast
9:55 AM53.6 °F51.8 °F94 %28.83 in10.0 miSouth (180°)16.1 mph24.2 mphOvercast
10:35 AM53.6 °F51.8 °F94 %28.83 in8.0 miSSW (200°)20.7 mph27.6 mphOvercast
10:55 AM48.2 °F42.8 °F82 %28.88 in10.0 miWSW (250°)21.9 mph42.6 mphOvercast
11:16 AM46.4 °F41.0 °F81 %28.89 in10.0 miWSW (240°)17.3 mph25.3 mphMostly Cloudy
11:35 AM44.6 °F41.0 °F87 %28.88 in10.0 miWSW (240°)12.7 mph17.3 mphOvercast
11:55 AM44.6 °F41.0 °F87 %28.91 in10.0 miSW (230°)15.0 mph20.7 mphOvercast
12:15 PM48.2 °F39.2 °F71 %28.93 in10.0 miWSW (240°)24.2 mph29.9 mphMostly Cloudy
12:55 PM46.4 °F32.0 °F57 %28.99 in10.0 miWSW (240°)17.3 mph29.9 mphClear
1:15 PM46.4 °F26.6 °F46 %28.99 in10.0 miSW (230°)25.3 mph36.8 mphPartly Cloudy
1:35 PM46.4 °F28.4 °F50 %29.01 in10.0 miWSW (240°)27.6 mph34.5 mphScattered Clouds
1:55 PM46.4 °F23.0 °F40 %29.03 in10.0 miWest (260°)19.6 mph34.5 mphScattered Clouds
2:15 PM44.6 °F21.2 °F39 %29.05 in10.0 miWest (260°)17.3 mph28.8 mphPartly Cloudy
2:35 PM44.6 °F24.8 °F46 %29.06 in10.0 miWSW (240°)23.0 mph27.6 mphPartly Cloudy
2:55 PM42.8 °F23.0 °F46 %29.07 in10.0 miWSW (240°)17.3 mph26.5 mphClear
3:15 PM42.8 °F21.2 °F42 %29.09 in10.0 miWSW (250°)13.8 mph29.9 mphMostly Cloudy
3:35 PM42.8 °F19.4 °F39 %29.12 in10.0 miSW (230°)18.4 mph29.9 mphScattered Clouds
4:15 PM37.4 °F17.6 °F45 %29.16 in10.0 miWSW (240°)18.4 mph35.7 mphScattered Clouds
4:35 PM37.4 °F17.6 °F45 %29.18 in10.0 miWSW (240°)19.6 mph36.8 mphPartly Cloudy
4:55 PM37.4 °F15.8 °F41 %29.19 in10.0 miWSW (240°)19.6 mph29.9 mphMostly Cloudy
5:15 PM35.6 °F15.8 °F44 %29.21 in10.0 miWSW (240°)18.4 mph28.8 mphMostly Cloudy
5:55 PM35.6 °F14.0 °F41 %29.25 in10.0 miSW (230°)16.1 mph25.3 mphMostly Cloudy
6:15 PM35.6 °F14.0 °F41 %29.25 in10.0 miWSW (250°)17.3 mph31.1 mphOvercast
6:35 PM35.6 °F12.2 °F38 %29.27 in10.0 miSW (230°)17.3 mph24.2 mphOvercast
7:15 PM33.8 °F10.4 °F38 %29.30 in10.0 miSW (230°)17.3 mph27.6 mphScattered Clouds
7:35 PM33.8 °F10.4 °F38 %29.30 in10.0 miWSW (240°)20.7 mph28.8 mphScattered Clouds
7:55 PM33.8 °F10.4 °F38 %29.32 in10.0 miWSW (240°)19.6 mph29.9 mphMostly Cloudy
8:35 PM32.0 °F10.4 °F41 %29.32 in10.0 miSW (230°)15.0 mph25.3 mphOvercast
8:55 PM32.0 °F10.4 °F41 %29.33 in10.0 miWSW (250°)15.0 mph25.3 mphOvercast
9:15 PM32.0 °F8.6 °F38 %29.34 in10.0 miWSW (240°)18.4 mph26.5 mphOvercast
9:35 PM32.0 °F10.4 °F41 %29.35 in10.0 miWSW (240°)19.6 mph31.1 mphMostly Cloudy
9:55 PM32.0 °F8.6 °F38 %29.36 in10.0 miWest (260°)21.9 mph32.2 mphScattered Clouds
10:15 PM30.2 °F8.6 °F40 %29.37 in10.0 miWest (260°)19.6 mph31.1 mphClear
10:35 PM30.2 °F8.6 °F40 %29.38 in10.0 miWSW (250°)12.7 mph24.2 mphClear
10:55 PM30.2 °F10.4 °F44 %29.39 in10.0 miWSW (240°)17.3 mph23.0 mphPartly Cloudy
11:15 PM30.2 °F10.4 °F44 %29.40 in10.0 miWSW (250°)16.1 mph21.9 mphMostly Cloudy
11:35 PM30.2 °F10.4 °F44 %29.41 in10.0 miWest (270°)10.4 mph24.2 mphOvercast
Hourly data recorded from KLEW, located miles away from West Paris, Maine







STORIES FROM OUR PARTNERS